Weather History for Wink, TX

Change the Weather History Date:

Tuesday, March 12, 2013

  Actual Average Record
Temperature  
Mean Temperature 50 °F -  
Max Temperature 70 °F 72 °F 93 °F (1989)
Min Temperature 32 °F 39 °F 20 °F (1969)
Degree Days  
Heating Degree Days 15    
Moisture  
Dew Point 20 °F    
Average Humidity 29    
Maximum Humidity 44    
Minimum Humidity 18    
Precipitation  
Precipitation 0.00 in - - ()
Sea Level Pressure  
Sea Level Pressure 30.08 in    
Wind  
Wind Speed 10 mph (NNE)    
Max Wind Speed 21 mph    
Max Gust Speed 30 mph    
Visibility 10 miles    
Events      
Averages and records for this station are not official NWS values.
T = Trace of Precipitation, MM = Missing Value Source: NWS Daily Summary

Daily Weather History Graph

Daily Weather History Graph

Search for Another Location

Airport:

Trip Planner

Search our weather history database for the weather conditions in past years. The results will help you decide how hot, cold, wet, or windy it might be!

Date:

Astronomy

Mar. 12, 2013 Rise Set
Actual Time 8:06 AM CDT 7:59 PM CDT
Civil Twilight 7:41 AM CDT 8:23 PM CDT
Nautical Twilight 7:13 AM CDT 8:51 PM CDT
Astronomical Twilight 6:45 AM CDT 9:20 PM CDT
Moon 8:19 AM CDT (3/12) 9:08 PM CDT (3/12)
Length of Visible Light 12h 41m
Length of Day
11h 52m
New Moon, 1% of the Moon is Illuminated
Mar 12
New Moon
Mar 19
First Quarter
Mar 27
Full
Apr 2
Last Quarter
Apr 10
New

Hourly Weather History & Observations

Time (CDT) Temp. Windchill Dew Point Humidity Pressure Visibility Wind Dir Wind Speed Gust Speed Precip Events Conditions
12:53 AM 48.0 °F - 14.0 °F 26% 29.92 in 10.0 mi SW 8.1 mph - N/A   Clear
1:53 AM 48.0 °F - 12.9 °F 24% 29.92 in 10.0 mi WSW 9.2 mph - N/A   Clear
2:53 AM 45.0 °F 40.1 °F 12.9 °F 27% 29.92 in 10.0 mi WSW 9.2 mph - N/A   Clear
3:53 AM 45.0 °F 41.8 °F 12.9 °F 27% 29.91 in 10.0 mi WSW 5.8 mph - N/A   Clear
4:53 AM 41.0 °F 38.0 °F 12.9 °F 32% 29.92 in 10.0 mi NNW 4.6 mph - N/A   Clear
5:53 AM 36.0 °F 33.3 °F 12.0 °F 37% 29.95 in 10.0 mi South 3.5 mph - N/A   Clear
6:53 AM 33.1 °F 26.9 °F 12.0 °F 42% 29.97 in 10.0 mi North 6.9 mph - N/A   Clear
7:53 AM 32.0 °F 26.4 °F 12.0 °F 44% 30.00 in 10.0 mi North 5.8 mph - N/A   Clear
8:53 AM 37.0 °F 30.4 °F 12.9 °F 37% 30.06 in 10.0 mi NNE 9.2 mph 21.9 mph N/A   Clear
9:53 AM 51.1 °F - 24.1 °F 35% 30.09 in 10.0 mi North 19.6 mph - N/A   Clear
10:53 AM 53.1 °F - 27.0 °F 37% 30.12 in 10.0 mi NNE 18.4 mph - N/A   Clear
11:53 AM 57.9 °F - 27.0 °F 31% 30.14 in 10.0 mi North 20.7 mph 29.9 mph N/A   Clear
12:53 PM 60.1 °F - 27.0 °F 28% 30.17 in 10.0 mi NNE 17.3 mph 23.0 mph N/A   Clear
1:53 PM 63.0 °F - 27.0 °F 26% 30.15 in 10.0 mi NNE 13.8 mph 20.7 mph N/A   Clear
2:53 PM 66.0 °F - 27.0 °F 23% 30.14 in 10.0 mi NE 16.1 mph 20.7 mph N/A   Clear
3:53 PM 66.9 °F - 27.0 °F 22% 30.12 in 10.0 mi NE 9.2 mph - N/A   Clear
4:53 PM 68.0 °F - 25.0 °F 20% 30.11 in 10.0 mi NNE 13.8 mph 18.4 mph N/A   Clear
5:53 PM 68.0 °F - 24.1 °F 19% 30.12 in 10.0 mi ENE 6.9 mph - N/A   Clear
6:53 PM 66.9 °F - 21.9 °F 18% 30.14 in 10.0 mi ENE 11.5 mph - N/A   Clear
7:53 PM 63.0 °F - 21.0 °F 20% 30.16 in 10.0 mi ENE 10.4 mph - N/A   Clear
8:53 PM 57.0 °F - 21.0 °F 25% 30.19 in 10.0 mi ENE 9.2 mph - N/A   Clear
9:53 PM 55.4 °F - 21.2 °F 26% 30.26 in 10.0 mi ENE 12.7 mph - N/A   Clear
10:53 PM 52.0 °F - 21.0 °F 30% 30.25 in 10.0 mi ENE 12.7 mph - N/A   Clear
11:53 PM 48.9 °F - 19.9 °F 32% 30.26 in 10.0 mi ENE 11.5 mph - N/A   Clear